Regional Weather Roundup
Issued by NWS

Home | Current Version | Previous Version | Graphics & Text | Print | Product List | Glossary On
Versions: 1 2 3 4 5 6 7 8 9 10 11 12 13 14 15 16 17 18 19 20 21 22 23 24 25 26 27 28 29 30 31 32 33 34 35 36 37 38 39 40 41 42 43 44 45 46 47 48 49 50
000
ASUS43 KDTX 161001
RWRMI
MICHIGAN HOURLY REGIONAL WEATHER ROUNDUP
NATIONAL WEATHER SERVICE DETROIT/PONTIAC MI
600 AM EDT TUE SEP 16 2014

NOTE: "FAIR" INDICATES FEW OR NO CLOUDS BELOW 12,000 FEET WITH NO
SIGNIFICANT WEATHER AND/OR OBSTRUCTION TO VISIBILITY.

MIZ047>049-052>055-059>063-066>070-074>076-081>083-161100-
SOUTHEAST LOWER MICHIGAN

CITY           SKY/WX    TMP DP  RH WIND       PRES   REMARKS
ADRIAN         MOCLDY    51  49  92 N6        30.16R
ALMA           FOG       41  40  97 CALM      30.16S VSB 1/2
ANN ARBOR      CLEAR     50  47  89 CALM      30.13R
BAD AXE        FOG       39  39 100 CALM      30.12R VSB 1/4
CARO           FOG       43  43 100 CALM      30.13R VSB 1/4
DETROIT CITY   CLEAR     52  48  86 NW3       30.13S
DETROIT        CLOUDY    51  49  92 NW6       30.14R
FLINT          CLOUDY    50  47  89 W5        30.16R
GROSSE ILE     MOCLDY    54  52  94 NW6       30.12R
HILLSDALE      CLOUDY    52  52 100 NW5       30.15R FOG
HOWELL         MOCLDY    50  49  97 NW6       30.15R

CITY           SKY/WX    TMP DP  RH WIND       PRES   REMARKS
JACKSON        MOCLDY    49  48  97 NW3       30.15R
LAMBERTVILLE   MOCLDY    54  50  87 N6        30.14R
LANSING        CLEAR     47  45  93 W5        30.16S FOG
LAPEER         NOT AVBL
MASON          CLOUDY    50  49  95 NW7       30.15S
MONROE         PTCLDY    50  48  93 NW3       30.12R
MT. CLEMENS    CLEAR     49  47  93 NW5       30.11R
PONTIAC        MOCLDY    50  47  89 NW10      30.13R
PORT HOPE        N/A     48  45  89 VRB5      30.10R
PORT HURON     CLOUDY    48  48 100 NW5       30.12R FOG
TRI CITIES     FOG       46  44  93 W7        30.15S VSB 1/2
TROY           CLEAR     51  48  89 NW7       30.14R
SAGINAW HB     CLEAR     45  45 100 W5        30.14R
$$
MIZ043>046-050>051-056>058-064>065-071>073-077>080-161100-
SOUTHWEST LOWER MICHIGAN

CITY           SKY/WX    TMP DP  RH WIND       PRES   REMARKS
BATTLE CREEK   CLEAR     48  46  93 N5        30.17S
BENTON HARBOR  CLEAR     45  44  97 CALM      30.17R FOG
BIG RAPIDS     FOG       39  39 100 CALM      30.14S VSB 1/4
COLDWATER      MOCLDY    51  50  96 N3        30.15S
FREMONT        FOG       38  37  99 CALM      30.15S VSB<1/4
HOLLAND        CLEAR     43  41  93 CALM      30.17S FOG
GRAND RAPIDS   FOG       46  46 100 CALM      30.17S VSB 1/4
IONIA          FOG       46  46  99 CALM      30.16R VSB 1/4
KALAMAZOO      FOG       46  45  96 CALM      30.17S VSB 1/2
LUDINGTON      FOG       39  39  98 CALM      30.15R VSB 1/2
MARSHALL       CLOUDY    49  48  97 CALM      30.15S
MOUNT PLEASANT FOG       40  39  97 CALM      30.14S VSB 1/4
MUSKEGON       PTCLDY    42  40  92 SE5       30.16F FOG
SOUTH HAVEN    CLEAR     42  42  99 CALM      30.17S
$$
MIZ016>042-161100-
NORTHERN LOWER MICHIGAN

CITY           SKY/WX    TMP DP  RH WIND       PRES   REMARKS
ALPENA         CLOUDY    43  41  93 W5        30.12R
BEAVER ISLAND  CLEAR     43  42  94 CALM      30.12S
BELLAIRE       CLOUDY    46  44  96 CALM      30.13S
CADILLAC       FOG       36  36 100 CALM      30.13S VSB 1/4
CHARLEVOIX     MOCLDY    53  44  71 W6        30.15S
FRANKFORT      CLOUDY    44  41  90 CALM      30.13S FOG
GAYLORD        CLOUDY    42  40  92 CALM      30.12S
GRAYLING       CLOUDY    46  46 100 CALM      30.14R
HARBOR SPRINGS PTCLDY    46  44  91 CALM      30.12S
HOUGHTON LAKE  CLOUDY    42  42 100 CALM      30.14R
MANISTEE       MOCLDY    39  37  93 CALM      30.15R
OSCODA         CLEAR     40  40 100 CALM      30.12R
PELLSTON       MOCLDY    40  40 100 CALM      30.12R
ROGERS CITY    CLEAR     45  44  98 W6        30.12S
TRAVERSE CITY  CLOUDY    48  46  93 CALM      30.12S
$$
MIZ007>008-015-161100-
EASTERN UPPER MICHIGAN

CITY           SKY/WX    TMP DP  RH WIND       PRES   REMARKS
KINROSS        CLEAR     39  39 100 SW6       30.08F WCI  35
MACKINAC ISLAN CLEAR     49  44  80 W5        30.10S
NEWBERRY       CLEAR     40  38  95 W13       30.09R WCI  32
S. S. MARIE    CLEAR     43  40  89 W5        30.07S
$$
MIZ004>006-011>014-085-161100-
CENTRAL UPPER MICHIGAN

CITY           SKY/WX    TMP DP  RH WIND       PRES   REMARKS
MANISTIQUE     CLEAR     37  37  99 CALM      30.10F
ESCANABA       CLEAR     37  36  93 W7        30.12S WCI  32
MENOMINEE      CLEAR     39  37  93 W5        30.14S
SAWYER-GWINN   CLEAR     37  35  92 SW5       30.10S WCI  33
$$
MIZ001>003-009>011-084-161100-
WESTERN UPPER MICHIGAN

CITY           SKY/WX    TMP DP  RH WIND       PRES   REMARKS
IRON MOUNTAIN  CLEAR     37  34  89 NW3       30.12S
HOUGHTON       PTCLDY    46  39  76 W9        30.06F
COPPER HARBOR    N/A     53  37  54 NW8G16    30.04F
IRONWOOD       MOCLDY    43  37  81 SW5       30.10F
$$

ABBREVIATIONS USED IN REMARKS
   TC - TEMPERATURE IN CELSIUS
  WCI - WIND CHILL INDEX
   HX - HEAT INDEX
  VSB - VISIBILITY



USA.gov is the U.S. government's official web portal to all federal, state and local government web resources and services.